Location: Eastlake (historical)
(39.0077°N, 122.6678°W)
Time: 09:42:40
(UTC+00:00)

Meteor 2-3 Rocket - Pass Details

Date: 25 November 2020
Orbit: 842 x 885 km, 81.2° (Epoch: 26 January)

Event Time Altitude Azimuth Distance (km) Brightness Sun altitude
Rises 14:08:15 0° 213° (SSW) 3,425 6.7 -11.0°
Reaches altitude 10° 14:10:53 10° 222° (SW) 2,500 5.9 -10.6°
Maximum altitude 14:15:59 34° 286° (WNW) 1,406 4.3 -9.6°
Drops below altitude 10° 14:21:12 10° 351° (N) 2,539 5.9 -8.7°
Sets 14:23:54 0° 0° (N) 3,487 6.7 -8.2°
